AIC123 VAAH-WSSS

Flight info

Callsign AIC123
Flight time N/A
Altitude 39000
Route BODAR1A BODAR N895 NNP N877 AGEGA L510 GIVAL P628 VPL W531 VIH A464 VKL Y507 MAKNA Y511 TOPOR A464 ARAMA ARAMA1A
Aircraft A333/H-SDE3GHIJ2J3J5M1RVWXY/LB2D1

Departure

Time 2026-04-18 11:17
Airport Sardar Vallabh Patel International Airport (VAAH)

Arrival

Time N/A
Airport Singapore Changi Airport (WSSS)
Time Latitude Longitude Altitude Speed Heading
2026-04-18 11:17 22.87605 72.63801 4945 ft 287 kts 134°
2026-04-18 11:17 22.86582 72.65676 5408 ft 291 kts 107°
2026-04-18 11:17 22.86115 72.67796 5885 ft 294 kts 95°
2026-04-18 11:18 22.86230 72.70013 6400 ft 298 kts 81°
2026-04-18 11:18 22.86579 72.72218 7069 ft 298 kts 79°
2026-04-18 11:18 22.86982 72.74418 7682 ft 300 kts 78°
2026-04-18 11:18 22.87302 72.76672 8267 ft 304 kts 91°
2026-04-18 11:19 22.86976 72.78933 8858 ft 305 kts 103°
2026-04-18 11:19 22.86563 72.81184 9460 ft 308 kts 102°
2026-04-18 11:19 22.86147 72.83475 10067 ft 311 kts 102°
2026-04-18 11:19 22.85716 72.85852 10334 ft 327 kts 103°
2026-04-18 11:20 22.85266 72.88335 10520 ft 345 kts 102°
2026-04-18 11:20 22.84793 72.90951 10695 ft 361 kts 103°
2026-04-18 11:20 22.84297 72.93690 10863 ft 377 kts 102°
2026-04-18 11:20 22.83781 72.96537 11253 ft 385 kts 103°
2026-04-18 11:21 22.83269 72.99356 11837 ft 385 kts 103°
2026-04-18 11:21 22.82745 73.02248 12367 ft 388 kts 103°
2026-04-18 11:21 22.82219 73.05134 12871 ft 391 kts 103°
2026-04-18 11:21 22.81686 73.08053 13362 ft 394 kts 103°
2026-04-18 11:22 22.81154 73.10967 13850 ft 397 kts 103°
2026-04-18 11:22 22.80620 73.13900 14353 ft 399 kts 103°
2026-04-18 11:22 22.80073 73.16902 14818 ft 402 kts 103°
2026-04-18 11:22 22.79529 73.19881 15299 ft 404 kts 102°
2026-04-18 11:23 22.78982 73.22881 15763 ft 406 kts 102°
2026-04-18 11:23 22.78435 73.25876 16188 ft 408 kts 102°
2026-04-18 11:23 22.77876 73.28934 16610 ft 411 kts 102°
2026-04-18 11:23 22.77315 73.31993 17075 ft 413 kts 102°
2026-04-18 11:24 22.76751 73.35072 17505 ft 415 kts 102°
2026-04-18 11:24 22.76184 73.38168 17861 ft 420 kts 102°
2026-04-18 11:24 22.75611 73.41285 18251 ft 423 kts 102°
2026-04-18 11:24 22.75030 73.44443 18662 ft 425 kts 102°
2026-04-18 11:25 22.74445 73.47620 19033 ft 429 kts 102°
2026-04-18 11:25 22.73855 73.50815 19392 ft 432 kts 102°
2026-04-18 11:25 22.73265 73.54015 19767 ft 435 kts 102°
2026-04-18 11:25 22.72672 73.57220 20138 ft 437 kts 103°
2026-04-18 11:26 22.72061 73.60519 20476 ft 441 kts 103°
2026-04-18 11:26 22.71453 73.63808 20848 ft 443 kts 103°
2026-04-18 11:26 22.70845 73.67080 21197 ft 445 kts 103°
2026-04-18 11:26 22.70228 73.70403 21536 ft 448 kts 103°
2026-04-18 11:27 22.69611 73.73724 21878 ft 450 kts 103°
2026-04-18 11:27 22.68981 73.77105 22157 ft 453 kts 103°
2026-04-18 11:27 22.68403 73.80206 22472 ft 455 kts 103°
2026-04-18 11:27 22.67775 73.83574 22802 ft 457 kts 103°
2026-04-18 11:28 22.67140 73.86970 23077 ft 460 kts 103°
2026-04-18 11:28 22.66501 73.90391 23347 ft 463 kts 103°
2026-04-18 11:28 22.65855 73.93840 23646 ft 465 kts 103°
2026-04-18 11:28 22.65205 73.97303 23945 ft 467 kts 103°
2026-04-18 11:29 22.64547 74.00808 24247 ft 469 kts 103°
2026-04-18 11:29 22.63889 74.04310 24494 ft 472 kts 103°
2026-04-18 11:29 22.63230 74.07806 24775 ft 474 kts 103°
2026-04-18 11:29 22.62567 74.11323 25071 ft 476 kts 103°
2026-04-18 11:30 22.61908 74.14822 25322 ft 478 kts 103°
2026-04-18 11:30 22.61233 74.18391 25584 ft 480 kts 103°
2026-04-18 11:30 22.60540 74.21967 25846 ft 481 kts 106°
2026-04-18 11:30 22.59573 74.25380 26072 ft 482 kts 110°
2026-04-18 11:31 22.58569 74.28778 26348 ft 484 kts 110°
2026-04-18 11:31 22.57536 74.32281 26629 ft 485 kts 110°
2026-04-18 11:31 22.56511 74.35751 26863 ft 488 kts 110°
2026-04-18 11:31 22.55466 74.39291 27127 ft 490 kts 110°
2026-04-18 11:32 22.54422 74.42819 27379 ft 491 kts 110°
2026-04-18 11:32 22.53382 74.46336 27629 ft 493 kts 110°
2026-04-18 11:32 22.52330 74.49888 27851 ft 495 kts 110°
2026-04-18 11:32 22.51277 74.53439 28062 ft 497 kts 110°
2026-04-18 11:33 22.50203 74.57059 28267 ft 500 kts 110°
2026-04-18 11:33 22.49139 74.60641 28521 ft 500 kts 110°
2026-04-18 11:33 22.48068 74.64244 28742 ft 502 kts 111°
2026-04-18 11:33 22.46994 74.67857 28960 ft 503 kts 111°
2026-04-18 11:34 22.45920 74.71464 29192 ft 503 kts 111°
2026-04-18 11:34 22.44834 74.75108 29484 ft 502 kts 111°
2026-04-18 11:34 22.43762 74.78701 29743 ft 503 kts 111°
2026-04-18 11:34 22.42685 74.82311 30029 ft 502 kts 111°
2026-04-18 11:35 22.41606 74.85922 30287 ft 502 kts 112°
2026-04-18 11:35 22.40527 74.89527 30557 ft 502 kts 112°
2026-04-18 11:35 22.39448 74.93133 30865 ft 501 kts 112°
2026-04-18 11:35 22.38379 74.96701 31126 ft 501 kts 112°
2026-04-18 11:36 22.37298 75.00306 31446 ft 500 kts 112°
2026-04-18 11:36 22.36212 75.03925 31706 ft 500 kts 112°
2026-04-18 11:36 22.35127 75.07534 31928 ft 500 kts 112°
2026-04-18 11:36 22.34040 75.11149 32220 ft 500 kts 112°
2026-04-18 11:37 22.32960 75.14738 32509 ft 499 kts 113°
2026-04-18 11:37 22.31884 75.18309 32798 ft 498 kts 113°
2026-04-18 11:37 22.30796 75.21918 33059 ft 498 kts 113°
2026-04-18 11:37 22.29716 75.25497 33334 ft 497 kts 113°
2026-04-18 11:38 22.28642 75.29052 33626 ft 497 kts 113°
2026-04-18 11:38 22.27556 75.32640 33869 ft 497 kts 113°
2026-04-18 11:38 22.26481 75.36198 34183 ft 496 kts 114°
2026-04-18 11:38 22.25405 75.39748 34444 ft 496 kts 113°
2026-04-18 11:39 22.24331 75.43295 34682 ft 496 kts 114°
2026-04-18 11:39 22.23255 75.46839 34841 ft 497 kts 113°
2026-04-18 11:39 22.21087 75.53976 34811 ft 498 kts 114°
2026-04-18 11:40 22.18931 75.61062 34802 ft 501 kts 113°
2026-04-18 11:40 22.16752 75.68210 34788 ft 499 kts 114°
2026-04-18 11:41 22.14574 75.75344 34790 ft 500 kts 114°
2026-04-18 11:41 22.12383 75.82503 34794 ft 500 kts 114°
2026-04-18 11:42 22.10194 75.89648 34801 ft 500 kts 114°
2026-04-18 11:42 22.08012 75.96760 34804 ft 499 kts 114°
2026-04-18 11:43 22.05745 76.03861 34811 ft 498 kts 115°
2026-04-18 11:43 22.03450 76.10812 34817 ft 498 kts 115°
2026-04-18 11:44 22.01123 76.17859 34813 ft 498 kts 115°
2026-04-18 11:44 21.98777 76.24961 34811 ft 497 kts 115°
2026-04-18 11:45 21.96445 76.31998 34815 ft 499 kts 115°
2026-04-18 11:45 21.94098 76.39069 34815 ft 499 kts 115°
2026-04-18 11:46 21.91761 76.46107 34815 ft 501 kts 115°
2026-04-18 11:46 21.89417 76.53145 34820 ft 500 kts 115°
2026-04-18 11:47 21.87066 76.60199 34823 ft 499 kts 115°
2026-04-18 11:47 21.84716 76.67233 34820 ft 501 kts 115°
2026-04-18 11:48 21.82352 76.74302 34827 ft 499 kts 116°
2026-04-18 11:48 21.79985 76.81368 34838 ft 499 kts 115°
2026-04-18 11:49 21.77621 76.88415 34850 ft 498 kts 116°
2026-04-18 11:49 21.75260 76.95430 34857 ft 499 kts 116°
2026-04-18 11:50 21.72883 77.02500 34870 ft 499 kts 116°
2026-04-18 11:50 21.70511 77.09537 34863 ft 497 kts 116°
2026-04-18 11:51 21.68145 77.16540 34870 ft 502 kts 115°
2026-04-18 11:51 21.65777 77.23534 34863 ft 503 kts 115°
2026-04-18 11:52 21.63385 77.30602 34879 ft 504 kts 115°
2026-04-18 11:52 21.60973 77.37709 34908 ft 502 kts 115°
2026-04-18 11:53 21.58681 77.44827 34946 ft 505 kts 114°
2026-04-18 11:53 21.56384 77.51976 34983 ft 504 kts 114°
2026-04-18 11:54 21.54074 77.59158 34976 ft 508 kts 114°
2026-04-18 11:54 21.51787 77.66249 34967 ft 504 kts 114°
2026-04-18 11:55 21.49562 77.73376 34949 ft 505 kts 113°
2026-04-18 11:55 21.47343 77.80566 34920 ft 508 kts 113°
2026-04-18 11:56 21.45089 77.87854 34902 ft 510 kts 112°
2026-04-18 11:56 21.42860 77.95054 34874 ft 509 kts 113°
2026-04-18 11:57 21.40627 78.02258 34860 ft 507 kts 113°
2026-04-18 11:57 21.38378 78.09492 34857 ft 508 kts 113°
2026-04-18 11:58 21.36143 78.16667 34843 ft 509 kts 113°
2026-04-18 11:58 21.33888 78.23898 34831 ft 507 kts 113°
2026-04-18 11:59 21.31621 78.31155 34836 ft 510 kts 113°
2026-04-18 11:59 21.29364 78.38366 34840 ft 510 kts 113°
2026-04-18 12:00 21.27091 78.45618 34856 ft 510 kts 113°
2026-04-18 12:00 21.24818 78.52853 34872 ft 513 kts 113°
2026-04-18 12:01 21.21400 78.63723 34865 ft 513 kts 113°
2026-04-18 12:02 21.19122 78.70953 34834 ft 513 kts 114°
2026-04-18 12:02 21.16836 78.78192 34816 ft 513 kts 114°
2026-04-18 12:03 21.14550 78.85422 34808 ft 512 kts 114°
2026-04-18 12:03 21.12255 78.92667 34800 ft 512 kts 114°
2026-04-18 12:04 21.09960 78.99905 34790 ft 514 kts 114°
2026-04-18 12:04 21.07214 79.06895 34771 ft 497 kts 131°
2026-04-18 12:05 21.02787 79.12283 34778 ft 492 kts 138°
2026-04-18 12:05 20.98441 79.17600 34789 ft 490 kts 138°
2026-04-18 12:06 20.94012 79.23056 34789 ft 491 kts 138°
2026-04-18 12:06 20.89647 79.28458 34787 ft 493 kts 136°
2026-04-18 12:07 20.85287 79.34048 34790 ft 494 kts 136°
2026-04-18 12:07 20.80838 79.39741 34789 ft 492 kts 136°
2026-04-18 12:08 20.76441 79.45359 34785 ft 493 kts 136°
2026-04-18 12:08 20.72015 79.51007 34786 ft 492 kts 136°
2026-04-18 12:09 20.67662 79.56557 34783 ft 492 kts 136°
2026-04-18 12:09 20.63234 79.62196 34777 ft 492 kts 136°
2026-04-18 12:10 20.59598 79.66823 34766 ft 493 kts 136°